Regional Weather Roundup
Issued by NWS

Home | Current Version | Previous Version | Text Only | Print | Product List | Glossary On
Versions: 1 2 3 4 5 6 7 8 9 10 11 12 13 14 15 16 17 18 19 20 21 22 23 24 25 26 27 28 29 30 31 32 33 34 35 36 37 38 39 40 41 42 43 44 45 46 47 48 49 50
000
ASUS43 KMPX 291801
RWRMN
WEATHER ROUNDUP FOR MINNESOTA
NATIONAL WEATHER SERVICE TWIN CITIES/CHANHASSEN MN
100 PM CDT TUE JUL 29 2014


NOTE: "FAIR" INDICATES FEW OR NO CLOUDS BELOW 12,000 FEET WITH NO
SIGNIFICANT WEATHER AND/OR OBSTRUCTIONS TO VISIBILITY. N/A MEANS
CURRENT SKY AND/OR WEATHER CONDITIONS ARE NOT AVAILABLE.

MNZ060>063-068>070-291900-
   Twin Cities Metro

CITY           SKY/WX    TMP DP  RH WIND       PRES   REMARKS
TWIN CITIES    PTSUNNY   78  55  44 W13       30.11F
6HR MIN TEMP:  62; 6HR MAX TEMP:  78;

ST PAUL        MOSUNNY   76  56  49 NW9       30.10F
CRYSTAL        PTSUNNY   78  56  46 W12G20    30.10F
LAKEVILLE      MOSUNNY   75  55  50 NW7       30.12F
EDEN PRAIRIE   MOSUNNY   78  56  46 NW9       30.11F
6HR MIN TEMP:  60; 6HR MAX TEMP:  78;

SOUTH ST PAUL  PTSUNNY   77  53  42 W10       30.10F
LAKE ELMO      FAIR      77  59  53 NW9       30.11F
$$
MNZ001>005-007-008-013>017-022>024-027-028-291900-
   Northwest Minnesota

CITY           SKY/WX    TMP DP  RH WIND       PRES   REMARKS
BEMIDJI        MOSUNNY   74  55  52 NW9G18    30.14S
HALLOCK        SUNNY     73  55  53 N8        30.15S
ROSEAU         MOSUNNY   75  59  57 W6        30.12F
WARROAD        SUNNY     75  57  53 NW9G18    30.12S
THIEF RVR FALL SUNNY     72  55  56 NW7       30.15F
CROOKSTON      SUNNY     73  57  56 N8        30.16F
FOSSTON        MOSUNNY   73  55  53 W8        30.16F
DETROIT LAKES  MOSUNNY   72  54  53 NW8G16    30.18F
MOORHEAD       SUNNY     75  55  50 NW8       30.17F
PARK RAPIDS    MOSUNNY   74  54  49 NW9       30.15F
$$
MNZ006-009>011-018-025>026-291900-
   North Central Minnesota

CITY           SKY/WX    TMP DP  RH WIND       PRES   REMARKS
BAUDETTE       SUNNY     75  56  51 NW14      30.11S
FLAG ISLAND    SUNNY     73  55  53 NW14      30.08F
INTL FALLS     MOSUNNY   74  57  55 NW10      30.06F
6HR MIN TEMP:  59; 6HR MAX TEMP:  76;

WASKISH        SUNNY     75  57  53 W8        30.11F
BIG FORK       SUNNY     75  54  46 NW7       30.10S
LONGVILLE      MOSUNNY   73  57  56 NW8G20    30.13F
GRAND RAPIDS   SUNNY     73  54  49 NW16G23   30.10F
CRANE LAKE     SUNNY     72  61  68 W3        30.06S
ORR            MOSUNNY   73  55  53 NW9       30.04S
COOK           SUNNY     75  57  53 W10       30.06F
$$
MNZ012-019>021-037-291900-
   Northeast Minnesota

CITY           SKY/WX    TMP DP  RH WIND       PRES   REMARKS
DULUTH         PTSUNNY   70  58  65 W8        30.06F
6HR MIN TEMP:  58; 6HR MAX TEMP:  74; 6HR PCP:  0.02;

ELY            MOSUNNY   72  55  56 NW9       30.04S
HIBBING        SUNNY     76  53  44 NW15G22   30.07F
EVELETH        MOSUNNY   72  52  49 NW12G18   30.07S
DULUTH HARBOR  PTSUNNY   68  59  73 NW7       30.04F
TWO HARBORS    MOSUNNY   73  55  53 W10G16    30.01F
SILVER BAY     SUNNY     75  61  60 NW5       29.99F
GRAND MARAIS     N/A     53  51  93 CALM      30.00F
G MARAIS ARPRT MOSUNNY   63  55  77 NW3       30.04S
$$
MNZ029>031-032-039>041-046>048-054>057-064-291900-
   West Central Minnesota

CITY           SKY/WX    TMP DP  RH WIND       PRES   REMARKS
FERGUS FALLS   MOSUNNY   73  52  46 N8G17     30.17F
WHEATON        MOSUNNY   70  55  60 NW6       30.19F
MORRIS         SUNNY     75  55  50 NW9       30.17F
ALEXANDRIA     MOSUNNY   74  53  48 NW10      30.18F
ELBOW LAKE     FAIR      70  55  59 NW6       30.17F
WADENA         MOSUNNY   72  55  56 NW9       30.15F
GLENWOOD       MOSUNNY   75  54  46 NW10      30.17F
APPLETON       MOSUNNY   75  52  43 NW10      30.17F
BENSON         MOSUNNY   73  54  49 N10       30.17F
ORTONVILLE     PTSUNNY   73  54  49 N8        30.18F
MADISON        SUNNY     75  55  50 N10       30.18F
WILLMAR        FAIR      73  52  46 NW7       30.17F
$$
MNZ033>034-036-042>043-049>051-058-059-291900-
   Central Minnesota

CITY           SKY/WX    TMP DP  RH WIND       PRES   REMARKS
ST CLOUD       PTSUNNY   78  54  43 NW12      30.12F
6HR MIN TEMP:  58; 6HR MAX TEMP:  80;

SAUK CENTRE    MOCLDY    73  53  50 W8        30.16F
PAYNESVILLE    MOSUNNY   74  51  44 W8        30.16F
AITKIN         MOSUNNY   77  57  50 W5        30.10F
PINE RIVER     MOSUNNY   73  55  53 W8        30.16F
BRAINERD       PTSUNNY   72  54  53 NW13G18   30.13F
STAPLES        MOSUNNY   75  54  46 NW9       30.14F
LONG PRAIRIE   FAIR      70  52  52 W6        30.16F
LITTLE FALLS   SUNNY     73  54  49 NW9       30.13F
LITCHFIELD     MOSUNNY   75  55  50 SW5       30.16S
BUFFALO        PTSUNNY   73  55  52 W6        30.13F
MAPLE LAKE     MOSUNNY   75  59  57 NW9       30.14S
$$
MNZ037-044-045-052-053-291900-
   East Central Minnesota

CITY           SKY/WX    TMP DP  RH WIND       PRES   REMARKS
PRINCETON      MOSUNNY   77  57  50 NW9       30.11F
MORA           SUNNY     73  55  53 NW9       30.12F
CAMBRIDGE      MOSUNNY   79  61  53 NW12      30.09F
RUSH CITY      MOSUNNY   75  57  52 NW9       30.09F
MOOSE LAKE     PTSUNNY   75  55  50 NW7       30.07F
HINCKLEY       FAIR      77  59  53 NW10      30.09F
CLOQUET        MOSUNNY   73  52  46 NW10      30.08F
MCGREGOR       MOSUNNY   73  55  53 NW8       30.10F
$$
MNZ071>073-080-081-089-090-097-098-291900-
   Southwest Minnesota

CITY           SKY/WX    TMP DP  RH WIND       PRES   REMARKS
MONTEVIDEO     MOSUNNY   75  57  53 NW8       30.18F
GRANITE FALLS  PTSUNNY   72  55  54 NW9       30.19F
CANBY          MOSUNNY   74  52  44 N8        30.19F
MARSHALL       MOSUNNY   73  54  49 NW10G17   30.18F
REDWOOD FALLS  PTSUNNY   75  54  47 NW10G18   30.17F
OLIVIA         MOSUNNY   73  55  53 NW9       30.16F
PIPESTONE      PTSUNNY   70  52  52 NW3       30.21F
WINDOM         MOSUNNY   73  52  46 NW8       30.19F
WORTHINGTON    PTSUNNY   70  52  52 N6        30.21F
JACKSON        PTSUNNY   72  52  49 NW9       30.20F
TRACY          MOSUNNY   73  55  54 N5        30.19F
SLAYTON        PTSUNNY   69  53  55 CALM      30.21F
$$
MNZ065>067-074>077-082>085-091>093-291900-
   South Central Minnesota

CITY           SKY/WX    TMP DP  RH WIND       PRES   REMARKS
MANKATO        PTSUNNY   73  52  46 NW10      30.15F
NEW ULM        MOSUNNY   73  55  53 NW13      30.16F
ST JAMES       MOSUNNY   77  55  47 NW7       30.18F
FAIRMONT       PTSUNNY   73  54  49 NW8       30.17F
GLENCOE        SUNNY     76  52  42 W13       30.14F
FARIBAULT      MOSUNNY   79  48  34 NW10      30.14S
OWATONNA       MOSUNNY   73  55  53 W8        30.14F
WASECA         MOSUNNY   72  52  49 NW8       30.16F
ALBERT LEA     MOSUNNY   73  55  53 NW9       30.15F
$$
MNZ078>079-086>088-094>096-291900-
   Southeast Minnesota

CITY           SKY/WX    TMP DP  RH WIND       PRES   REMARKS
ROCHESTER      MOSUNNY   75  57  53 NW10      30.13F
6HR MIN TEMP:  57; 6HR MAX TEMP:  76;

RED WING       SUNNY     81  55  41 NW10G17   30.09S
STANTON        PTSUNNY   77  56  48 W12G17    30.11F
DODGE CENTER   MOSUNNY   73  57  56 NW10      30.13F
WINONA         SUNNY     79  55  44 NW10G17   30.08F
AUSTIN         MOSUNNY   73  54  49 NW9G16    30.13F
PRESTON        MOSUNNY   73  62  68 NW9G16    30.13F
$$
ABBREVIATIONS USED IN REMARKS
   TC - TEMPERATURES IN CELSIUS
  WCI - WIND CHILL INDEX
   HX - HEAT INDEX
  VSB - VISIBILITY
$$


USA.gov is the U.S. government's official web portal to all federal, state and local government web resources and services.